Home > Weather > Rochester > Past weeks

Flag for U.S.A. Weather for the Past 2 Weeks in Rochester, New York, U.S.A.

Now
13 °F

Overcast.


Feels Like: -1 °F
Forecast: 15 / 26 °F
Wind: 12 mph from Southwest

Location: Greater Rochester International Airport

Current Time: Feb 12, 2016 at 3:59:45 AM

Latest Report: Feb 12, 2016 at 2:54 AM


Visibility: 10 mi

Pressure: 30.19 "Hg

Humidity: 61%

Dew point: 2 °F

Location of RochesterLocation

Historic Weather in Rochester — Graph

°F

Rochester Temperature Yesterday

Maximum temperature yesterday: 16 °F (at 12:54 AM)
Minimum temperature yesterday: 10 °F (at 8:54 AM)
Average temperature yesterday: 13 °F

High & Low Weather Summary for the Past Weeks

 TemperatureHumidityPressure
High60 °F (Feb 1, 1:54 AM)96% (Jan 29, 1:54 AM)30.39 "Hg (Jan 29, 1:54 AM)
Low10 °F (Feb 11, 8:54 AM)40% (Jan 30, 1:54 PM)29.49 "Hg (Feb 1, 1:54 AM)
Average35 °F68%29.89 "Hg
* Reported Jan 28 2:54 AM — Feb 12 2:54 AM, Rochester, Weather by CustomWeather, © 2016

Note: Actual official high and low records may vary slightly from our data, if they occured in-between our weather recording intervals... More about our weather records

Advertising

Rochester Weather History for the Previous 24 Hours

 ConditionsComfort  
Time TempWeatherWind HumidityBarometerVisibility
2:54 AM
Fri, Feb 12
13 °FOvercast.12 mph61%30.19 "Hg10 mi
1:54 AM11 °FPassing clouds.7 mph67%30.21 "Hg9 mi
12:54 AM12 °FLight snow. Mostly cloudy.12 mph67%30.22 "Hg9 mi
11:54 PM
Thu, Feb 11
13 °FLight snow. Overcast.15 mph67%30.23 "Hg9 mi
10:54 PM12 °FPassing clouds.9 mph64%30.24 "Hg10 mi
9:54 PM13 °FOvercast.10 mph67%30.23 "Hg10 mi
8:54 PM13 °FPartly cloudy.14 mph74%30.22 "Hg8 mi
8:02 PM13 °FLight snow. Mostly cloudy.13 mph77%30.16 "Hg2 mi
6:54 PM13 °FLight snow. Overcast.12 mph77%30.19 "Hg2 mi
5:54 PM13 °FLight snow. Overcast.13 mph77%30.16 "Hg1 mi
4:00 PM14 °FPartly sunny.18 mph61%30.07 "Hg10 mi
2:54 PM13 °FLight snow. Broken clouds.18 mph61%30.09 "Hg6 mi
1:54 PM12 °FLight snow. Partly sunny.18 mph58%30.08 "Hg7 mi
12:54 PM11 °FLight snow. Broken clouds.17 mph67%30.07 "Hg2 mi
11:54 AM11 °FLight snow. Partly sunny.21 mph67%30.05 "Hg1 mi
10:54 AM10 °FLight snow. Partly sunny.16 mph73%30.03 "Hg1 mi
9:54 AM10 °FSnow. Mostly cloudy.21 mph76%30.01 "Hg1 mi
8:54 AM10 °FLight snow. Partly sunny.21 mph67%29.98 "Hg2 mi
7:54 AM11 °FLight snow. Partly sunny.16 mph70%29.94 "Hg3 mi
6:54 AM12 °FLight snow. Mostly cloudy.13 mph77%29.91 "Hg2 mi
5:54 AM13 °FLight snow. Overcast.15 mph77%29.88 "Hg2 mi
4:54 AM14 °FPassing clouds.20 mph61%29.85 "Hg10 mi
3:54 AM14 °FPassing clouds.14 mph71%29.84 "Hg10 mi
Weather by CustomWeather, © 2016

See weather overviewHow to use our weather pages